星链-30921 (STARLINK-30921 )

导读

STARLINK-30921是美国太空探索技术公司(SpaceX)于2023年11月20日发射的星链(Starlink)卫星,隶属于美国Starlink星座组网项目,旨在为全球提供低延迟、高速率的宽带互联网服务。该卫星由SpaceX部署到近地轨道,是星链全球星座建设过程中补充组网的卫星之一。

基本信息
目录编号:
58383
目录名称:
STARLINK-30921
国际标识:
2023-178K
轨道中心:
EARTH
卫星名称:
星链-30921
卫星全名:
星链-30921 (STARLINK-30921 )
卫星状态:
在轨 (已飞行941 天)
发射日期:
2023-11-20 UTC
国别 :
美国 (US)
星等 :
--
轨道信息
数据来源 国际轨道数据
星历时间: 2026-06-17T20:01:52+0800
21小时前
查看轨道信息
半长轴: 6840.891km
偏心率: 0.0001319
轨道倾角: 53.161°
近地点辐角 78.740°
升交点赤经 256.002°
平近点角 281.375°
近地点: 461.851km
远地点: 463.657km
周期: 93.849分钟
每日圈数: 15.343832
详细信息
固有亮度:
5
最大亮度:
0.3
卫星平台:
Starlink v2.0 mini
覆盖范围:
全球
运营商:
太空探索技术公司
运营商所在国:
美国
制造商(研发单位):
太空探索技术公司
制造商所在国:
美国
使用方式:
暂无
卫星简介
星链(Starlink)计划是由太空探索技术公司(SpaceX)提出的一个巨型低轨卫星互联网星座项目,计划在2019年至2024年间在太空搭建由约1.2万颗卫星组成的“星链”网络,其中1584颗将部署在地球上空550千米处的近地轨道,并从2020年开始工作。该卫星仍在工作。
2D轨道图
3D轨道图
轨道高度分析图
轨道倾角分析图
轨道综合分析图
查看轨道综合分析图